Theta_e
304 304 303 303 303 303 302 302 302 302 301 300 300 299 299 299 299 298 298 297 297 297 296 296 296 295 295 295 295 295 294 294 294 294 294 295 295 295 295 295 295 296 296 296 295 295 295 294 294 294 294 293 293 293 293 292 292 291 291 291 291 291 292 292 292 291 291 291 292 292 292 292 292 292 293 293 293 293 293 293 293 293 293 293 293 293
303 303 302 302 302 302 302 302 301 301 301 300 299 298 298 298 298 297 297 297 296 296 296 296 295 295 295 295 294 294 294 294 294 294 294 294 294 295 295 295 295 295 295 295 294 293 293 292 292 292 292 292 292 292 292 291 291 291 290 290 290 290 291 290 290 290 290 290 290 290 290 291 291 291 291 291 291 291 291 291 291 291 292 292 292 292
302 302 302 302 302 301 301 301 301 300 300 300 299 298 298 298 297 297 297 296 296 296 296 296 296 296 296 295 295 295 295 294 294 294 294 294 295 295 295 295 295 294 294 293 293 292 292 292 292 292 292 292 292 291 290 290 290 290 290 290 290 290 290 290 290 290 290 290 290 290 290 290 290 290 290 290 290 290 290 290 291 291 291 291 291 291
302 302 301 301 301 301 301 301 300 300 300 300 299 299 298 298 298 297 297 297 297 297 297 297 297 296 296 296 296 295 295 295 295 295 295 295 295 295 295 294 294 293 293 292 292 292 292 292 292 292 291 291 290 289 288 289 289 289 289 290 290 290 290 290 290 290 290 290 290 290 290 290 290 290 290 290 290 290 290 290 290 290 290 291 291 291
301 301 301 301 301 300 300 300 300 300 300 300 299 299 299 299 298 298 298 298 297 297 297 297 297 297 297 296 296 296 295 295 295 295 295 295 295 295 295 294 293 292 292 292 292 292 291 291 291 290 289 288 287 287 287 288 289 289 290 290 290 290 290 290 290 290 290 290 290 290 290 289 289 289 289 289 289 290 290 289 290 290 290 290 290 291
301 301 301 301 300 300 300 300 300 300 300 300 299 299 299 299 298 298 298 298 298 298 297 297 297 297 296 296 296 296 295 295 295 295 295 295 295 295 294 293 293 292 292 291 291 291 290 289 288 287 287 286 286 287 288 289 289 290 290 290 290 290 290 290 290 290 290 289 289 289 289 289 289 289 289 289 289 289 289 289 289 289 289 289 290 290
301 301 300 300 300 300 300 300 300 299 299 299 299 299 299 298 298 298 298 298 298 297 297 297 296 296 296 295 295 295 295 295 295 295 295 294 294 293 293 292 291 291 290 290 289 289 288 287 287 286 286 286 287 287 288 289 289 289 290 290 290 290 289 289 289 289 289 289 289 288 288 288 288 288 288 288 288 288 288 288 288 289 289 289 289 289
300 300 300 300 300 299 299 299 299 299 299 299 298 298 298 298 298 297 297 297 297 296 296 296 296 295 295 295 295 295 294 294 294 293 293 292 292 291 290 290 289 289 288 288 287 287 287 286 286 286 286 286 286 287 287 288 288 288 289 289 289 289 289 288 288 288 288 288 288 288 288 287 287 287 288 288 288 288 288 288 288 288 289 289 289 289
300 300 299 299 299 299 299 298 298 298 298 298 298 297 297 297 296 296 296 296 296 295 295 295 295 294 294 294 294 293 293 292 292 291 291 290 289 289 288 288 287 287 287 287 287 286 286 286 286 286 286 286 286 286 286 286 286 287 287 287 287 287 287 287 287 287 287 287 287 287 287 287 287 288 288 288 288 288 288 289 289 289 289 289 289 289
300 299 299 298 298 298 297 297 297 297 297 297 296 296 296 295 295 295 294 294 294 294 294 293 293 293 292 292 292 291 291 290 289 289 289 288 288 288 287 287 287 287 287 286 286 286 286 286 286 286 286 286 285 285 285 285 285 285 286 286 286 286 286 287 287 287 287 287 287 287 287 287 288 288 288 288 288 289 289 289 289 289 289 289 289 289
299 299 298 298 297 297 296 296 296 296 295 295 295 294 294 294 294 293 292 292 291 291 291 291 290 290 290 289 289 289 289 288 288 288 288 287 287 287 287 287 287 287 286 286 286 286 285 285 285 285 285 285 285 285 285 285 285 285 285 285 286 286 286 286 286 287 287 287 287 287 287 288 288 288 288 289 289 289 289 289 289 289 289 289 289 290
298 298 297 297 296 296 295 295 295 294 294 294 293 293 292 292 292 291 291 290 290 289 289 289 289 288 288 288 288 288 288 288 287 287 287 287 287 287 287 287 286 286 286 285 285 285 285 285 285 285 285 285 285 285 285 285 285 285 285 286 286 286 286 287 287 287 287 287 287 288 288 288 288 288 289 289 289 289 289 289 289 289 289 289 290 290
297 296 296 296 295 295 294 294 293 293 292 292 292 291 290 290 290 290 290 289 289 289 288 288 288 288 288 288 287 287 287 287 287 287 287 287 287 287 286 286 286 286 285 285 285 284 284 285 285 285 285 285 285 285 285 285 285 286 286 286 286 286 287 287 287 287 287 287 288 288 288 288 289 289 289 289 289 289 289 289 289 289 289 289 290 290
295 294 294 294 293 293 292 292 292 291 291 290 290 290 289 289 289 289 289 288 288 288 288 288 287 287 287 287 287 287 287 287 287 287 287 287 286 286 286 286 286 285 285 285 284 284 284 284 285 285 285 285 285 285 285 285 286 286 286 286 286 287 287 287 287 287 288 288 288 288 288 289 289 289 289 289 289 289 289 289 289 289 289 289 289 290
292 292 292 291 291 291 290 290 290 290 289 289 289 289 288 288 288 288 288 288 287 287 287 287 287 287 287 287 287 287 287 287 286 286 286 286 286 286 286 286 285 285 285 285 284 284 284 284 285 285 285 285 285 285 286 286 286 286 286 287 287 287 287 287 287 288 288 288 288 288 289 289 289 289 289 289 289 289 289 289 289 289 289 289 289 289
290 290 289 289 289 289 289 289 289 289 289 288 288 288 288 288 288 288 288 287 287 287 287 287 287 287 287 287 286 286 286 286 286 286 286 286 286 285 285 285 285 285 285 284 284 284 284 284 284 285 285 285 286 286 286 286 286 286 287 287 287 287 287 287 287 288 288 288 288 289 289 289 289 289 289 289 289 289 289 289 289 289 290 290 290 290
288 288 288 288 288 288 288 288 288 288 288 288 288 288 288 288 288 287 287 287 287 287 287 287 287 287 287 286 286 286 286 286 286 285 285 285 285 285 285 285 285 284 284 284 284 283 284 284 284 285 285 285 286 286 286 286 286 287 287 287 287 287 287 287 288 288 288 288 288 289 289 289 289 289 289 289 289 289 289 289 289 290 290 290 290 290
287 287 287 287 288 288 288 288 288 288 288 288 288 288 287 287 287 287 287 287 287 287 287 287 286 286 286 286 286 285 285 285 285 285 285 285 285 285 284 284 284 284 284 283 283 283 284 284 285 285 285 286 286 286 286 286 287 287 287 287 287 287 287 287 288 288 288 288 288 288 289 289 289 289 289 289 289 289 289 289 289 289 289 290 289 290
286 287 287 287 287 287 287 287 287 287 287 287 286 286 286 286 286 286 286 286 286 286 286 286 286 286 285 285 285 285 285 285 284 284 284 284 284 284 284 283 283 283 283 283 283 284 284 284 285 285 286 286 286 286 286 287 287 287 287 287 287 287 287 287 288 288 288 288 288 288 288 289 289 289 289 289 289 289 289 289 289 289 289 289 289 289
286 286 286 286 286 286 285 285 285 285 285 285 285 285 285 285 285 285 285 285 285 285 285 285 285 285 285 285 284 284 284 284 284 283 283 283 284 283 283 283 283 283 283 283 284 284 285 285 285 285 286 286 286 286 286 287 287 287 287 287 287 287 287 287 288 288 288 288 288 288 288 288 288 289 289 289 289 289 289 289 289 289 289 289 289 289
285 285 285 285 285 285 285 285 285 285 285 285 285 285 285 285 285 285 285 284 284 284 284 284 284 284 284 284 284 283 283 283 283 283 283 283 283 283 283 283 283 283 284 284 284 285 285 285 285 286 286 286 286 286 286 287 287 287 287 287 287 287 287 287 288 288 288 288 288 288 288 288 288 288 289 289 289 289 289 289 289 289 289 289 289 290
285 285 285 285 285 285 285 285 284 284 284 284 284 284 284 284 284 284 284 284 284 284 284 284 284 284 283 283 283 283 283 283 283 283 283 283 284 284 283 283 283 284 284 284 285 285 285 286 286 286 286 286 286 286 287 287 287 287 287 287 287 287 287 287 288 288 288 288 288 288 288 288 288 288 289 289 289 289 289 289 289 289 289 289 290 290
285 285 285 285 284 284 284 284 284 284 284 284 284 284 284 284 284 284 284 284 284 284 284 283 283 283 283 283 283 282 282 282 282 283 283 283 284 284 284 284 284 284 284 285 285 285 286 286 286 286 286 286 286 286 287 287 287 287 287 287 287 287 287 287 287 288 288 288 288 288 288 288 288 288 289 289 289 289 289 289 289 289 290 290 290 290
285 285 284 284 284 284 284 284 284 284 284 283 283 283 283 283 284 284 284 284 284 283 283 283 283 283 283 283 282 282 282 282 282 283 283 283 284 284 284 284 284 285 285 285 286 286 286 286 286 286 286 286 286 287 287 287 287 287 287 287 287 287 287 287 287 287 288 288 288 288 288 288 288 288 289 289 289 289 289 289 289 290 290 290 290 290
285 284 284 284 284 284 284 284 284 283 283 283 283 283 283 283 283 283 283 283 283 283 283 282 282 282 282 282 282 282 282 282 282 283 283 284 284 284 284 284 285 285 285 286 286 286 286 286 286 286 286 286 286 287 287 287 287 287 287 287 287 287 287 287 287 287 288 288 288 288 288 288 288 289 289 289 289 289 289 289 290 290 290 290 290 290
285 284 284 284 284 284 284 284 284 283 283 283 283 283 283 283 283 283 283 283 283 282 282 282 282 281 282 282 282 282 282 282 282 283 284 284 284 285 285 285 285 285 286 286 286 286 286 286 286 286 286 286 287 287 287 287 287 287 287 287 287 287 287 287 288 288 288 288 288 288 288 288 289 289 289 289 289 289 290 290 290 290 290 290 291 291
284 284 284 284 284 284 283 283 283 283 283 283 283 283 283 283 283 283 283 282 282 281 281 281 281 281 281 281 281 281 282 282 283 283 284 284 284 285 285 285 285 285 286 286 286 286 286 287 287 287 287 287 287 287 287 287 287 287 287 287 287 288 288 288 288 288 288 288 288 288 288 288 289 289 289 289 289 289 290 290 290 290 290 290 291 291
284 284 284 283 283 283 283 283 283 283 283 283 283 282 282 282 282 282 282 281 281 281 281 281 280 280 281 281 281 281 282 282 283 283 284 284 284 284 285 285 285 285 286 286 287 287 287 287 287 287 287 287 287 287 287 287 287 287 288 288 288 288 288 288 288 288 288 288 288 288 288 288 289 289 289 289 289 290 290 290 290 290 290 290 291 291
284 283 283 283 283 283 283 283 283 283 282 282 282 282 282 282 282 281 281 281 281 281 281 281 281 280 281 281 281 281 282 282 283 284 284 284 284 284 284 284 285 285 286 286 287 287 287 287 287 287 287 287 288 288 288 288 288 288 288 288 288 288 288 288 288 288 288 288 288 288 288 289 289 289 289 289 290 290 290 290 290 290 290 290 291 291
283 283 283 283 283 283 283 282 282 282 282 282 282 282 281 281 281 281 281 281 281 281 281 281 281 281 281 281 281 282 282 283 283 284 284 284 284 284 284 284 285 285 285 286 286 287 287 287 287 287 287 287 288 288 287 287 287 287 287 288 288 288 288 288 288 288 288 288 288 289 289 289 289 289 289 290 290 290 290 290 290 290 290 290 291 291
283 283 283 282 282 282 282 282 282 282 282 282 282 281 281 281 281 281 281 281 281 281 281 281 281 281 281 281 281 282 282 283 283 284 284 284 284 284 284 284 285 285 285 285 285 286 287 287 287 287 287 287 287 287 287 287 287 287 287 288 288 288 288 288 288 288 289 289 289 289 289 289 289 290 290 290 290 290 290 290 290 290 290 290 291 291
283 283 283 282 282 282 282 282 282 282 282 282 282 282 282 281 281 281 281 281 281 281 281 281 281 281 281 282 282 282 283 283 283 284 284 284 284 284 284 284 284 285 285 285 284 284 285 286 287 288 287 287 287 287 287 287 287 287 288 288 288 288 288 288 289 289 289 289 289 289 289 290 290 290 290 290 290 290 290 290 290 290 290 290 290 290
282 282 282 282 282 282 282 282 282 282 282 282 282 282 282 282 281 281 281 281 281 281 281 281 281 281 282 282 282 283 283 283 283 284 284 284 284 284 284 284 284 284 285 285 285 284 284 285 287 288 288 288 288 288 288 288 288 288 288 288 288 288 288 288 289 289 289 289 289 289 289 289 289 289 289 289 289 290 290 289 289 289 289 289 290 290
282 282 282 282 282 282 282 282 282 282 282 282 282 282 281 281 281 281 281 281 281 281 281 281 281 281 282 282 283 283 284 284 283 283 283 284 284 284 284 284 284 284 285 285 285 285 285 286 286 288 289 289 289 289 289 289 289 288 288 288 288 288 289 289 289 289 289 289 289 289 289 289 289 289 289 289 289 289 289 289 289 289 289 289 289 289
282 282 282 282 282 282 282 282 282 282 282 282 281 281 281 281 281 281 281 281 281 281 281 281 282 282 282 283 283 284 284 284 284 283 283 284 284 284 284 284 284 284 284 285 285 285 285 286 286 287 288 289 289 289 289 289 289 289 289 289 289 289 289 289 289 289 289 290 290 289 289 289 289 289 289 289 289 288 288 288 288 288 288 288 288 288
282 282 282 282 282 282 282 282 282 282 282 281 281 281 281 281 281 281 281 281 281 281 281 281 282 282 283 283 283 284 284 284 284 284 284 284 284 284 284 284 285 284 284 284 285 285 285 286 286 287 287 288 289 289 289 289 289 289 289 289 289 289 289 289 289 290 290 290 290 289 289 289 289 289 288 288 288 288 288 288 288 288 288 287 287 287
283 283 283 282 282 282 282 282 282 282 281 281 281 281 281 281 281 281 281 281 281 281 281 282 282 283 284 284 284 285 285 285 285 284 284 284 284 284 284 285 285 285 285 284 285 285 285 285 286 287 287 288 288 289 289 289 289 289 289 289 289 290 290 289 289 290 290 290 289 289 289 289 289 288 288 288 288 288 288 287 287 287 287 287 287 287
283 283 283 282 282 282 282 282 282 282 281 281 281 281 281 281 281 281 281 281 281 281 282 282 283 284 284 284 285 285 285 285 285 285 285 285 285 285 285 285 285 285 285 285 285 285 285 285 286 287 287 288 288 289 289 289 290 290 290 290 290 290 290 290 290 290 289 289 289 289 289 289 288 288 288 288 287 287 287 287 287 287 287 286 286 286
283 283 282 282 282 282 282 282 282 282 281 281 281 281 281 281 281 281 281 281 282 282 283 283 284 284 284 285 285 285 285 285 285 285 285 285 285 285 285 285 285 285 285 285 285 285 285 285 285 286 286 287 288 289 289 289 289 290 290 290 290 290 290 290 290 289 289 289 289 289 288 288 288 287 287 287 287 287 287 287 286 286 286 286 286 286
282 282 282 282 282 282 282 282 282 282 281 281 281 281 281 281 281 281 281 282 282 283 283 284 284 284 285 285 285 285 285 285 285 285 285 285 285 285 285 285 285 285 285 285 286 286 286 285 286 286 286 287 288 289 289 289 289 289 290 290 291 291 290 290 289 289 289 289 288 288 288 287 287 287 287 287 286 286 287 286 286 286 286 286 286 286
282 282 282 282 282 282 282 282 282 282 282 281 281 281 281 281 281 282 282 282 283 283 284 284 285 285 285 285 285 285 285 285 285 285 285 285 285 285 285 285 285 285 285 285 286 286 286 286 286 286 286 287 287 288 289 289 289 289 289 289 290 290 290 290 289 289 288 288 288 287 287 287 286 286 286 286 286 286 286 286 286 286 286 286 286 286
282 282 282 282 282 282 282 282 281 281 281 281 281 281 281 281 282 282 283 283 284 284 284 285 285 285 285 285 285 285 285 285 285 285 285 285 285 285 285 285 285 286 285 285 285 286 286 286 286 286 286 286 287 287 288 289 289 289 289 289 289 289 289 289 289 288 288 287 287 287 286 286 286 286 286 286 286 286 286 286 286 286 286 286 286 286
282 282 282 282 282 282 282 282 281 281 281 281 281 281 282 282 282 283 283 284 284 285 285 285 285 285 285 285 285 285 285 285 285 285 285 285 285 285 285 285 285 285 285 285 285 285 285 285 285 286 286 286 286 286 288 288 289 289 289 289 288 288 289 289 288 288 287 287 287 286 286 286 286 286 286 286 286 286 286 286 286 286 286 286 286 286
282 282 282 282 282 282 282 281 281 281 281 281 282 282 282 282 283 283 284 284 284 285 285 285 285 285 285 285 285 285 285 285 285 285 285 285 285 285 285 285 285 285 285 284 284 285 285 285 285 285 285 285 286 286 287 288 288 289 288 288 288 287 288 288 288 287 287 287 286 286 286 286 286 286 286 286 286 286 286 286 286 287 287 286 286 286
282 282 282 282 282 282 282 282 282 282 282 282 282 282 282 283 283 284 284 284 285 285 285 285 285 285 285 285 285 285 285 285 285 285 285 285 285 284 284 284 284 284 284 284 284 284 284 284 285 285 285 285 286 286 286 287 288 288 288 287 287 287 287 287 287 287 287 287 287 286 286 286 286 286 286 287 287 287 287 287 287 287 287 287 287 287
282 282 282 282 282 282 282 282 282 282 282 282 282 283 283 283 284 284 284 285 285 285 285 285 285 285 285 285 285 285 285 285 285 285 285 284 284 284 284 284 283 283 283 283 284 284 284 284 284 284 285 285 285 286 286 286 287 287 287 287 286 286 287 287 287 286 286 286 286 286 286 286 286 286 287 287 287 287 287 287 287 287 287 287 287 287
282 282 282 282 282 282 282 282 282 282 282 282 283 283 283 284 284 284 285 285 285 285 285 285 285 285 285 285 285 285 285 285 285 285 285 284 284 283 283 283 283 283 283 283 283 284 284 285 285 284 284 284 285 285 286 286 286 286 286 286 286 286 286 287 287 286 286 286 286 286 286 286 286 286 287 287 287 287 287 287 287 287 287 287 287 287
282 282 282 282 282 282 282 282 282 282 282 283 283 284 284 284 284 285 285 285 285 285 285 285 285 285 285 285 285 285 285 285 285 285 285 285 284 284 284 283 283 283 283 283 284 284 284 284 284 284 284 284 284 285 285 286 286 286 285 285 285 286 286 286 286 286 286 286 286 286 286 286 286 286 286 286 287 287 288 288 287 287 287 287 286 287
282 282 282 282 282 282 282 282 282 282 283 283 284 284 284 284 284 285 285 285 284 284 284 285 285 285 285 285 284 284 284 284 285 285 285 285 284 285 285 284 284 284 284 284 284 284 284 284 284 284 284 284 284 285 285 285 286 285 285 285 285 286 286 286 286 286 286 286 286 286 286 286 286 286 285 286 286 287 288 288 288 287 287 286 286 286
282 282 282 282 282 282 282 282 282 282 283 283 284 284 284 284 284 284 284 284 284 284 284 284 284 284 284 284 284 284 284 284 284 285 285 284 284 284 285 285 284 284 284 284 284 284 284 284 285 285 285 285 285 285 285 285 285 285 285 285 285 285 285 286 286 286 286 286 286 286 286 286 286 285 285 285 285 286 287 288 288 287 287 286 286 286
282 282 282 282 282 282 282 282 282 283 283 283 284 284 284 284 284 284 284 284 284 284 284 284 284 284 284 284 284 284 284 284 284 284 284 284 284 284 284 284 284 284 284 284 284 284 284 284 284 284 285 285 285 284 284 285 285 285 285 285 285 285 285 285 286 286 286 285 285 285 285 285 285 285 285 284 285 285 286 287 287 287 287 286 286 286
Wind_Speed
21 20 19 18 16 15 14 13 11 9 8 8 9 10 11 11 11 12 12 13 14 15 15 15 15 14 14 15 15 16 16 16 16 16 16 17 17 18 18 19 19 20 20 19 18 17 16 15 15 14 14 14 14 14 15 15 15 16 15 15 15 15 15 15 15 15 15 15 15 15 16 16 17 18 18 19 19 20 20 21 21 20 20 20 20 20
18 17 16 15 14 13 11 11 9 8 7 7 8 9 10 10 11 12 12 13 13 13 13 13 13 12 12 13 13 14 14 14 14 15 15 16 17 17 18 18 19 19 18 17 16 15 14 14 14 14 15 15 15 15 15 15 16 16 16 15 15 15 15 16 16 16 16 16 16 16 16 17 18 18 19 20 20 20 20 20 20 20 20 19 18 18
15 15 13 12 11 10 9 9 8 7 7 7 7 8 9 10 11 11 12 12 12 12 11 11 11 11 11 11 12 12 12 13 13 14 15 16 16 17 17 18 18 17 16 15 15 15 15 16 16 16 16 16 16 16 16 16 16 16 16 16 16 16 16 16 16 16 15 15 16 16 16 17 17 18 18 19 18 18 18 17 17 17 17 16 16 16
13 12 11 10 9 8 7 7 7 7 6 6 7 7 9 9 10 10 10 10 10 10 9 9 9 9 10 10 11 11 11 12 12 13 14 15 16 16 16 17 16 16 16 16 16 17 17 17 17 17 17 16 16 16 16 15 15 15 15 15 16 16 16 15 15 15 15 16 16 16 16 17 17 17 17 17 17 16 16 16 15 15 14 14 14 14
10 9 8 8 7 6 6 6 6 5 5 5 6 7 8 8 9 9 9 9 9 9 9 9 9 9 9 9 10 10 10 11 12 13 14 15 15 16 16 16 16 16 16 17 17 18 18 18 18 17 17 16 16 16 15 15 14 14 14 15 15 15 15 16 16 16 17 17 17 17 16 16 16 16 16 16 15 15 15 16 15 15 14 14 14 14
8 7 7 6 5 5 5 5 5 4 4 5 5 6 6 7 7 8 8 8 8 9 9 9 9 9 10 10 10 10 11 11 12 13 14 14 15 15 16 16 16 17 17 18 18 19 18 18 18 17 16 16 15 14 14 14 14 14 14 15 16 16 17 17 18 18 18 18 17 16 16 15 15 15 14 15 15 15 15 15 15 15 14 14 14 14
7 6 6 5 5 5 5 5 5 4 4 4 5 5 6 6 7 7 7 7 8 8 9 9 10 10 11 11 11 12 12 12 13 13 13 14 14 15 15 16 16 17 17 18 18 18 18 18 18 17 17 16 15 15 15 15 15 16 16 17 18 18 19 19 19 18 18 17 17 16 15 15 14 14 13 13 13 13 13 13 13 13 14 14 13 13
7 6 6 6 6 6 6 6 6 6 6 6 6 6 6 7 7 7 7 8 8 9 9 10 10 11 12 12 12 12 13 13 13 13 13 13 13 13 14 14 15 16 17 17 18 18 19 19 19 19 18 18 18 18 18 18 18 19 19 20 20 20 19 19 18 18 17 16 15 15 14 14 13 13 13 12 12 12 12 12 12 13 13 13 13 12
7 8 8 7 7 7 8 8 8 8 7 7 7 7 7 8 8 8 8 8 9 9 10 10 11 12 12 13 13 12 12 12 12 12 12 12 12 12 13 13 14 15 16 18 18 19 20 20 20 20 20 21 21 21 21 21 21 21 21 21 21 20 19 18 17 16 15 15 14 14 13 13 13 12 12 12 12 12 12 12 12 12 12 12 12 12
8 9 10 10 10 9 9 9 9 9 9 9 9 9 9 8 8 8 8 9 9 10 10 10 10 11 12 12 12 11 11 11 11 11 11 11 12 12 13 14 15 16 17 18 20 20 21 21 21 21 21 22 22 23 23 23 23 22 22 21 20 19 18 17 16 15 14 14 13 13 13 12 12 12 12 12 13 13 13 12 12 13 12 12 12 12
10 10 11 11 11 11 11 10 10 10 10 9 9 10 10 9 8 8 7 8 8 9 9 9 9 9 10 10 10 10 10 10 11 11 12 12 13 14 15 16 16 17 18 20 20 21 21 22 22 22 22 22 22 23 23 22 22 21 20 19 18 17 16 16 15 14 14 13 13 12 12 12 12 12 12 13 13 13 13 13 13 13 13 13 13 13
10 11 11 11 11 11 11 11 11 10 10 9 8 8 8 8 8 7 7 7 7 8 8 8 8 9 9 9 10 10 11 11 12 13 13 14 15 16 16 17 18 19 19 20 21 22 22 22 22 22 22 22 22 22 21 21 20 19 18 17 16 16 15 15 14 14 13 13 12 12 12 12 12 12 13 13 13 13 13 13 13 13 13 14 14 14
10 10 11 11 11 11 11 10 10 10 9 8 6 6 6 7 7 7 7 7 8 8 8 8 9 9 10 10 11 12 12 13 14 15 15 16 17 17 18 18 19 19 19 20 21 22 22 23 23 23 22 22 21 21 20 19 18 17 16 16 15 15 15 14 14 13 13 12 12 12 12 12 13 13 13 14 14 14 14 14 14 14 14 14 14 14
9 10 10 10 10 10 10 10 9 8 8 7 6 6 7 7 8 8 8 8 9 9 9 10 11 11 12 12 13 14 14 15 16 17 17 18 18 18 18 19 19 19 19 20 20 21 22 23 23 23 22 21 20 19 18 16 16 15 15 15 15 14 14 14 13 13 12 12 12 12 12 13 13 13 14 14 14 15 14 14 14 14 14 14 14 14
8 8 9 9 9 9 9 9 8 8 8 8 7 8 8 9 9 9 9 9 10 11 11 12 13 13 14 14 15 15 16 17 17 18 18 18 19 19 19 19 20 20 19 20 20 21 22 22 22 22 21 20 18 17 16 15 14 14 14 14 14 14 14 13 13 13 12 12 12 13 13 13 13 14 14 14 14 14 15 15 15 15 15 15 15 15
9 8 8 8 8 8 8 8 8 8 8 9 9 9 9 10 10 11 11 12 13 13 14 14 15 15 15 15 15 16 16 17 18 19 19 20 20 20 20 20 21 20 20 20 20 20 21 21 21 20 19 18 17 15 14 14 14 14 14 14 14 14 14 13 13 13 13 13 13 13 13 13 14 14 14 14 14 15 15 15 15 15 16 16 16 16
9 9 8 8 8 8 9 9 9 9 10 10 11 11 11 12 12 13 13 14 15 15 16 16 17 17 16 15 16 17 17 18 19 21 21 21 21 21 21 21 22 21 20 20 19 19 19 20 19 19 18 17 16 15 14 14 14 14 14 14 14 14 14 13 13 13 13 13 13 13 13 14 14 14 14 15 15 15 15 16 16 16 17 17 17 17
9 9 9 9 9 10 10 10 11 11 12 12 13 13 14 15 15 15 16 16 16 17 17 18 18 19 19 18 18 19 19 19 21 22 23 23 22 21 21 21 21 21 20 19 18 17 17 18 18 17 17 16 16 15 15 15 14 14 14 14 14 14 14 14 13 13 13 13 14 14 14 14 15 15 15 15 16 16 17 17 17 18 18 18 18 18
9 9 9 10 10 11 12 12 12 13 13 14 15 15 16 16 17 17 17 17 18 18 19 19 20 21 21 20 20 20 21 21 22 23 24 24 23 22 21 21 20 20 18 17 16 15 15 16 16 16 16 16 16 16 15 15 15 14 14 14 14 14 14 14 14 14 14 14 14 15 15 15 16 16 16 17 17 17 18 18 19 19 19 19 19 19
9 9 9 10 10 11 12 12 12 13 13 14 15 16 16 17 17 17 18 18 19 19 20 20 20 21 21 21 21 21 22 22 23 24 25 25 24 22 21 20 19 18 16 14 13 13 14 15 15 16 16 16 16 16 16 16 16 15 14 14 14 14 14 14 14 15 15 15 15 16 16 17 17 17 18 18 18 19 19 19 20 20 20 20 20 20
10 10 10 10 10 11 11 12 12 13 13 14 15 15 16 16 16 17 17 18 18 19 19 19 20 20 20 21 21 21 21 22 23 24 24 25 23 21 19 18 17 16 14 13 12 12 13 14 15 15 15 16 16 17 17 17 16 15 15 14 14 14 15 15 15 15 16 16 17 17 18 18 18 19 19 19 19 20 20 20 20 21 21 21 21 21
11 11 11 11 11 11 11 12 13 13 14 14 14 15 15 16 16 17 17 17 17 18 18 18 18 19 19 19 19 20 20 20 21 22 23 24 22 20 17 16 15 14 13 12 11 12 13 13 14 14 15 16 17 17 17 17 17 16 15 15 15 15 15 16 16 16 17 17 18 19 19 19 19 20 20 20 20 20 20 21 21 21 21 21 21 21
12 11 11 11 11 11 12 12 13 14 14 14 14 15 15 16 16 16 17 17 17 17 17 18 18 18 18 18 18 18 18 18 18 19 20 21 20 17 15 13 13 13 12 12 12 12 13 13 13 14 15 16 17 18 18 17 17 16 16 16 16 16 16 16 17 17 18 19 19 20 20 20 20 20 20 20 20 21 21 21 21 21 21 21 22 22
13 12 12 12 12 12 12 13 14 14 15 15 15 16 16 17 17 18 18 18 18 18 19 19 19 19 19 18 18 18 17 16 16 16 17 18 18 16 13 12 11 12 12 12 12 12 12 12 13 14 15 16 17 18 18 18 17 17 16 16 16 17 17 17 18 19 19 20 20 20 20 20 20 20 20 21 21 21 21 22 22 22 22 22 22 22
14 14 14 14 14 14 14 14 14 15 16 16 17 17 18 19 19 19 19 19 19 20 21 22 22 22 22 21 21 20 18 16 14 14 15 16 16 14 12 11 11 12 12 11 11 12 12 12 12 13 15 16 17 18 18 18 17 17 17 17 17 18 18 19 19 20 20 20 20 20 20 20 20 20 21 21 21 22 22 22 22 22 23 23 23 23
16 16 17 17 17 16 16 16 15 15 16 17 18 18 19 20 20 21 20 20 20 21 22 22 23 23 22 22 22 20 18 16 14 13 13 15 15 14 12 11 12 13 13 12 12 12 12 12 12 13 15 16 17 17 18 17 17 17 18 18 18 19 19 20 20 20 20 20 20 20 20 20 20 20 21 22 22 23 23 23 23 23 24 24 24 25
17 17 18 18 18 18 18 18 17 16 16 17 18 18 19 21 21 22 21 20 20 20 21 21 22 22 22 22 21 20 19 17 14 12 12 14 15 14 13 13 13 14 14 14 13 12 12 12 12 13 14 16 16 17 17 17 18 18 18 19 19 19 19 19 19 19 19 19 19 19 19 20 20 21 22 23 23 24 24 24 24 24 25 25 26 26
17 17 18 18 19 19 19 19 19 18 18 18 18 19 19 20 21 22 21 20 19 19 20 20 20 20 20 21 21 20 18 16 13 11 11 13 14 14 14 15 15 16 17 16 14 13 13 13 13 13 14 15 16 16 16 17 17 17 18 18 18 18 18 18 18 17 18 18 18 19 20 20 21 22 23 24 24 24 25 25 25 25 26 27 27 27
16 17 18 18 18 19 19 19 19 19 19 19 19 19 20 20 20 20 20 19 19 19 19 19 19 18 19 19 20 20 18 14 11 10 11 13 14 15 16 17 17 18 18 18 16 14 13 13 13 13 13 14 14 14 15 15 15 15 16 16 16 16 16 16 16 17 17 18 19 19 20 21 22 23 24 24 25 25 25 25 25 26 27 27 28 28
16 17 17 17 18 18 18 19 19 19 19 20 20 20 20 20 20 19 19 19 19 19 18 18 17 17 17 18 19 19 16 12 10 10 12 13 15 17 18 18 19 19 19 19 19 17 15 12 11 11 11 11 12 12 12 12 12 13 14 14 15 15 15 16 16 17 18 18 19 20 21 22 22 23 23 24 24 24 24 24 25 26 26 27 27 27
15 15 16 16 16 17 17 18 18 19 19 20 20 20 20 20 19 19 19 18 18 18 18 17 16 16 16 16 17 18 16 12 11 11 13 15 17 19 19 20 20 19 19 19 19 19 18 14 10 9 10 10 10 10 10 10 11 12 13 14 14 15 15 16 17 18 18 19 19 20 20 21 21 22 22 23 23 23 23 23 24 25 25 26 26 27
13 14 14 14 15 15 16 17 18 18 19 20 20 20 20 20 19 19 18 18 18 18 17 17 16 16 16 15 16 17 16 13 13 13 14 16 18 19 20 20 20 20 19 19 19 19 18 18 16 12 11 11 12 12 11 11 12 13 14 14 15 15 16 17 17 17 18 18 18 19 19 20 20 20 21 21 21 22 22 22 23 24 24 25 26 26
12 13 13 14 15 16 16 17 18 18 19 19 20 20 20 19 19 19 19 18 18 17 17 16 16 16 16 16 16 16 16 15 14 15 16 17 19 20 20 21 22 21 21 20 20 20 19 22 21 18 15 14 14 14 13 13 13 14 14 15 15 15 16 16 17 17 17 17 17 17 18 18 19 19 20 20 21 21 21 22 22 23 24 25 25 26
13 13 14 15 15 16 17 17 18 18 19 19 19 19 19 19 19 19 18 18 18 17 16 16 16 15 15 15 16 16 16 14 14 15 17 18 20 21 22 22 23 23 22 22 22 22 23 23 22 21 20 17 15 14 14 13 13 13 14 14 14 14 15 15 16 16 16 16 16 16 16 17 18 18 19 20 20 21 21 22 22 23 24 25 25 26
14 14 14 15 15 16 16 17 17 17 18 18 18 18 18 18 18 18 18 18 18 18 17 16 15 15 15 15 16 16 16 14 14 15 17 18 20 21 22 23 23 23 23 23 23 23 24 24 23 23 22 21 18 16 15 14 13 13 13 13 14 14 14 15 15 15 15 15 15 15 16 16 17 18 19 20 20 21 21 22 22 23 24 25 26 26
15 15 15 15 15 16 16 16 16 16 17 17 17 18 18 18 18 18 18 18 18 17 16 15 15 14 15 15 16 16 16 15 15 16 17 18 20 21 22 23 23 23 23 23 23 24 25 25 24 23 23 23 21 19 17 16 15 14 14 13 14 14 14 14 14 14 14 14 15 15 16 16 17 18 19 19 20 21 21 21 22 23 24 24 25 27
15 15 15 15 15 15 15 15 15 15 16 16 17 17 17 18 18 17 17 17 16 16 16 15 14 14 14 15 15 16 16 16 16 16 17 18 19 21 22 23 22 22 23 23 24 24 25 25 25 25 24 23 23 22 20 18 17 16 15 14 14 14 13 13 14 14 14 15 15 16 16 17 17 18 18 19 19 20 20 21 21 22 23 24 25 26
16 16 16 15 15 15 15 15 15 15 15 16 16 17 17 17 17 17 16 16 15 15 14 14 14 14 15 15 16 16 16 17 17 17 18 19 20 21 22 22 22 22 22 23 23 24 24 25 26 26 25 24 23 23 22 21 19 18 16 15 14 14 13 13 14 14 15 16 16 17 17 17 17 17 17 18 18 18 19 19 20 20 21 23 24 25
17 16 16 15 15 15 15 14 14 14 15 15 16 16 17 17 17 16 15 15 14 14 14 14 14 14 15 16 16 17 17 18 18 19 20 21 21 22 23 23 23 23 23 23 23 23 24 24 25 26 26 26 25 23 22 21 20 19 18 17 15 15 14 15 15 15 16 17 17 17 17 17 16 16 16 17 17 17 17 18 18 19 20 21 22 23
17 16 16 15 15 14 14 14 14 14 15 15 15 15 15 16 16 15 15 14 14 13 13 14 14 15 15 16 16 17 18 18 19 20 21 22 22 23 23 24 24 24 24 24 24 24 24 24 24 25 25 25 25 24 22 21 20 19 19 18 17 16 16 16 17 17 17 17 17 17 16 16 16 16 16 16 16 16 17 17 17 18 19 20 21 22
16 15 15 14 14 14 14 14 14 14 14 14 14 14 14 14 14 14 14 14 13 13 13 14 15 15 16 16 17 17 18 19 20 21 21 22 23 24 24 24 24 24 24 24 24 23 23 23 24 24 24 24 24 23 22 21 20 19 18 18 18 18 18 18 18 18 18 18 17 16 16 15 15 15 15 16 16 16 16 17 17 18 19 20 21 22
16 15 14 14 13 13 13 13 13 14 14 14 14 14 13 13 13 13 13 13 13 13 14 14 15 15 16 16 17 17 18 19 20 21 22 22 23 23 23 23 23 22 22 22 22 22 22 22 22 22 22 22 22 22 21 20 19 18 18 18 19 19 19 19 18 18 17 17 16 15 15 15 15 15 15 16 16 16 17 17 18 18 19 20 21 22
15 14 14 13 13 13 13 13 13 13 13 13 13 13 13 13 13 13 13 13 13 13 14 14 15 16 16 16 17 17 18 19 20 20 21 21 21 21 21 21 21 21 20 20 20 20 20 20 20 20 20 20 20 20 21 19 18 17 17 18 19 20 21 19 18 16 16 15 14 14 14 14 15 16 16 17 17 17 17 17 18 19 19 20 21 22
15 14 13 13 12 12 12 12 12 12 12 12 12 12 12 12 12 13 13 13 13 14 14 15 15 16 17 18 18 18 19 19 20 19 19 19 19 19 19 19 19 19 18 17 17 18 18 18 18 18 17 18 18 19 19 19 18 18 18 18 19 20 20 19 17 15 14 13 13 13 13 14 16 17 18 18 18 18 18 18 18 19 19 19 20 21
15 14 13 13 12 12 12 12 12 12 12 12 12 12 12 12 12 13 13 13 14 14 14 15 16 17 18 19 19 20 20 19 19 18 17 17 16 17 17 16 16 16 15 15 15 16 16 17 17 17 16 17 18 19 19 19 19 19 19 18 18 18 18 17 15 14 13 13 13 13 14 15 16 18 19 20 20 20 20 20 20 19 19 19 20 20
15 14 14 13 13 13 12 12 12 12 12 11 11 11 11 12 12 13 13 13 14 14 15 16 17 17 18 19 20 20 19 19 17 16 14 14 14 14 14 14 14 14 14 14 14 14 15 16 16 16 17 18 19 20 20 20 20 20 20 18 18 17 16 15 14 13 13 13 13 14 14 16 17 19 21 21 22 22 22 21 21 21 21 20 20 20
16 15 14 14 13 13 13 13 12 12 12 12 11 11 11 12 12 12 13 14 14 14 15 17 17 18 19 20 20 19 18 17 16 15 13 12 11 11 12 12 13 13 13 13 14 14 15 15 16 17 18 19 21 21 21 21 21 20 20 18 17 17 16 15 14 13 14 14 15 15 16 18 19 21 22 23 24 23 23 23 22 22 22 22 22 21
16 15 15 14 14 13 13 13 13 13 12 12 12 12 12 12 12 13 13 14 14 15 16 17 18 19 19 19 18 17 17 16 16 15 13 12 11 10 10 10 11 12 13 13 14 15 15 16 17 18 19 20 21 22 22 21 20 19 19 18 17 17 16 16 15 15 15 16 16 17 18 20 22 23 24 25 25 25 24 24 23 23 23 23 23 22
15 15 15 15 14 14 13 13 13 13 13 12 12 12 12 12 12 13 13 14 15 16 17 18 19 19 18 17 16 15 15 15 15 15 14 13 12 11 10 10 11 11 12 13 15 16 16 17 18 19 19 20 20 21 21 20 19 18 18 18 17 18 18 18 18 18 18 18 19 20 21 22 24 25 26 27 27 27 26 25 24 24 23 23 23 23
15 15 15 15 14 14 14 14 13 13 13 13 13 13 13 13 13 13 14 14 15 16 17 18 18 18 17 16 15 15 15 15 15 15 14 14 13 13 12 12 12 12 13 14 15 16 17 19 20 20 20 20 19 19 19 19 19 18 18 18 18 19 20 20 20 20 20 20 21 22 23 24 25 26 26 27 28 28 27 26 26 25 24 24 24 24
15 15 15 15 14 14 14 14 14 14 13 13 13 13 13 13 13 14 14 15 15 16 16 17 17 17 16 15 15 15 15 15 15 14 14 13 13 13 13 13 13 14 15 16 17 18 19 20 21 22 21 19 18 18 17 18 18 19 19 19 19 20 20 21 21 21 22 23 24 25 26 27 27 27 27 27 28 29 29 28 28 27 26 25 25 25
Wind_Direction
295 297 299 302 305 307 307 308 307 305 300 297 294 294 295 296 295 294 294 294 293 293 291 289 286 284 281 280 278 277 277 277 278 279 279 278 278 277 278 278 277 277 275 275 274 273 272 271 269 268 267 267 268 269 269 269 269 269 270 270 269 267 267 267 265 264 262 261 259 258 256 254 253 253 253 253 252 252 253 253 254 255 256 256 257 257
296 298 299 301 304 305 304 303 301 296 289 287 285 284 286 289 290 291 290 289 288 286 283 280 277 275 273 272 271 271 272 272 274 275 275 276 276 277 277 277 276 275 273 272 270 267 264 262 260 260 260 261 262 264 265 265 266 267 268 269 269 268 268 267 266 266 265 263 262 260 258 257 256 256 256 257 257 258 258 259 260 260 261 262 262 262
296 298 298 300 301 301 298 298 296 292 283 276 274 276 279 282 284 284 284 283 281 279 276 274 271 270 268 268 268 268 269 271 272 273 274 274 275 275 275 275 274 272 270 267 263 260 258 258 258 260 261 262 263 264 265 266 267 268 269 269 270 270 270 270 270 269 268 266 264 262 260 259 259 258 259 259 259 260 261 262 262 262 262 262 262 262
297 297 297 299 300 299 296 295 295 292 286 278 273 273 276 279 282 282 281 280 279 279 277 276 275 273 271 270 270 271 271 272 273 273 273 273 273 273 273 272 270 268 265 262 260 259 259 261 263 265 266 267 268 268 268 269 269 269 270 270 270 270 270 270 269 267 265 264 263 263 262 262 261 261 260 260 260 260 260 259 259 259 260 259 259 259
301 300 300 303 303 302 301 301 299 296 291 285 280 278 280 281 283 284 284 284 285 286 285 285 283 281 279 278 277 276 275 274 273 272 272 272 271 270 268 267 265 262 260 259 260 261 263 266 268 270 271 272 271 270 269 270 270 269 268 267 266 265 263 263 263 263 263 264 265 265 265 265 264 264 262 261 260 258 257 256 255 254 255 255 256 257
306 308 310 312 311 308 308 306 304 301 297 290 285 283 282 283 284 285 286 288 290 291 291 291 290 289 287 285 283 281 279 276 274 273 273 272 270 268 265 263 260 259 259 260 262 264 266 269 271 272 272 272 270 268 266 266 265 263 262 260 259 259 259 260 261 264 265 267 268 268 268 267 266 265 263 261 260 258 258 256 256 255 255 256 257 259
313 318 321 321 319 315 314 312 310 307 302 296 290 286 282 282 283 285 286 288 290 292 292 293 292 291 289 288 286 284 282 280 278 276 275 273 270 267 264 262 261 261 261 263 265 267 268 270 271 271 270 268 265 263 261 259 258 257 256 256 257 259 261 263 265 267 269 270 271 271 271 270 268 266 264 262 261 260 259 258 257 256 256 258 259 261
321 323 324 325 324 321 318 316 315 313 311 307 301 296 292 291 290 290 291 290 290 289 289 289 287 286 284 283 284 283 283 282 281 279 276 273 270 266 263 262 261 262 264 265 267 269 270 271 271 271 270 269 266 264 263 261 259 258 259 260 262 264 267 269 271 273 274 274 273 272 271 270 268 267 266 265 264 263 262 261 260 259 259 259 260 262
323 324 323 321 322 324 322 318 316 314 313 311 307 304 303 301 297 295 292 290 287 284 282 282 281 281 280 280 281 282 282 282 280 278 275 270 266 263 261 261 262 264 267 268 270 271 272 273 274 274 274 273 271 270 268 267 266 265 266 267 269 271 273 275 276 277 277 275 273 270 268 267 266 266 266 266 265 265 265 265 265 265 265 264 264 264
317 320 321 319 317 318 320 316 313 312 311 308 304 300 298 296 294 293 290 287 285 283 281 280 280 281 282 283 283 282 281 279 277 274 271 268 265 263 263 264 267 269 272 274 275 275 276 276 276 276 276 275 275 274 272 272 271 272 272 273 274 275 276 276 276 275 274 271 268 266 264 264 264 264 265 266 267 268 268 270 270 270 270 270 269 268
313 314 316 317 315 313 313 310 307 306 305 302 298 294 291 286 286 287 287 285 285 285 286 285 285 284 285 284 284 282 278 274 271 270 269 269 269 269 271 273 275 278 279 281 281 282 281 281 280 279 278 277 276 276 275 275 275 275 275 275 274 274 274 273 272 270 267 265 263 262 261 262 263 264 265 266 268 270 271 272 273 273 273 273 272 271
309 309 310 310 309 307 306 304 302 300 298 294 291 288 287 284 283 283 280 278 279 282 285 287 287 285 282 281 279 277 273 270 270 270 271 273 275 277 279 281 283 284 285 286 287 287 287 285 284 282 281 279 278 277 276 276 275 274 273 272 272 271 270 268 267 265 262 261 260 259 260 261 262 264 265 267 268 270 271 271 272 273 273 274 274 274
303 303 303 303 301 300 299 298 297 296 294 290 283 278 278 283 284 281 278 274 275 277 279 281 282 281 280 279 278 278 277 276 275 275 276 278 280 282 283 284 285 286 287 288 289 289 289 288 287 285 283 281 279 277 276 275 273 272 270 269 268 267 266 265 263 261 260 258 258 258 259 260 262 264 266 268 269 269 269 270 270 271 272 273 274 275
300 300 299 296 295 294 294 294 292 291 290 289 285 280 278 279 279 279 278 277 278 278 279 280 282 284 285 284 283 283 283 283 282 282 282 282 283 285 285 285 285 285 286 287 288 288 287 287 286 285 283 282 280 277 275 272 270 268 267 266 265 265 264 262 260 259 257 257 257 258 259 261 263 265 267 269 271 272 273 273 273 274 275 276 277 277
299 299 295 291 288 288 288 289 288 287 287 287 285 281 278 278 279 281 283 284 285 285 285 285 286 288 290 290 290 288 287 287 287 286 286 285 286 286 286 286 285 285 286 287 287 286 285 284 283 283 282 281 279 277 274 271 269 267 266 265 265 264 262 260 258 257 256 256 257 259 261 263 265 267 269 271 274 276 277 279 280 280 281 282 282 282
303 300 294 289 285 283 282 282 280 279 282 283 282 282 285 287 288 288 289 289 290 291 292 292 292 293 293 292 291 290 289 289 289 288 288 287 288 288 289 288 288 288 289 289 287 285 283 282 281 281 281 280 279 277 275 272 270 269 268 267 265 263 261 259 258 256 256 257 259 261 264 266 268 271 273 275 278 280 282 283 284 285 285 285 285 285
307 304 299 293 287 282 282 282 280 278 280 282 282 282 285 288 289 290 291 291 292 293 293 294 294 295 295 293 291 290 290 290 290 289 289 289 289 290 291 291 291 292 292 291 287 284 281 280 279 280 280 280 280 279 277 275 274 272 270 268 266 264 261 259 257 257 257 259 261 264 267 270 272 275 278 280 282 284 285 286 286 287 287 287 287 287
308 306 303 297 292 289 287 286 285 284 284 283 284 285 285 285 287 289 290 290 291 292 293 295 295 296 296 294 292 293 293 293 292 292 292 291 292 292 293 293 294 294 294 292 288 283 280 278 277 278 278 279 280 279 279 278 277 275 272 270 267 264 261 259 258 258 259 261 263 266 269 273 275 279 281 283 285 286 287 288 288 289 289 289 289 289
305 305 303 299 297 295 292 289 287 286 286 285 285 286 287 287 288 289 289 290 290 291 293 295 295 296 297 297 296 296 297 297 296 295 295 294 294 295 295 295 295 295 293 291 287 282 278 276 276 276 277 278 279 280 279 279 278 276 273 270 267 264 261 260 259 260 261 262 265 268 271 274 278 281 283 285 286 287 288 289 289 290 290 290 290 289
305 304 302 301 300 299 296 294 292 290 288 288 288 288 288 288 289 289 289 290 291 292 293 294 295 296 297 298 298 299 299 300 299 297 296 296 296 296 297 297 296 294 291 288 283 279 276 274 274 274 276 277 278 279 279 278 278 276 274 270 267 264 262 261 260 260 262 263 266 268 272 275 278 281 282 284 286 287 288 289 289 289 289 289 288 287
308 306 304 304 303 302 301 299 296 293 291 291 291 291 290 290 290 290 290 291 291 292 294 295 295 297 298 299 299 299 301 301 300 298 297 295 295 296 297 296 293 290 286 283 278 274 272 271 272 273 274 276 276 277 277 277 277 275 274 271 268 265 263 261 261 261 262 264 266 269 272 275 278 280 282 283 285 286 287 288 288 287 287 286 285 284
311 310 309 309 308 306 303 301 298 296 296 295 295 294 293 293 292 292 292 292 293 294 296 297 297 298 299 300 300 300 301 301 300 299 297 295 295 295 297 294 290 286 282 278 274 270 268 268 270 271 272 273 273 274 274 275 275 275 273 271 268 266 263 262 261 261 262 264 266 269 271 274 277 279 281 283 284 285 286 286 286 285 284 283 282 281
316 315 314 313 311 309 306 303 302 302 302 301 299 297 296 296 296 296 296 297 298 299 301 301 301 300 300 301 301 302 304 304 302 300 297 295 295 297 298 294 288 283 281 278 274 270 267 267 268 269 269 269 270 271 272 273 274 273 272 270 268 266 264 262 261 261 262 264 266 268 271 273 276 278 280 282 283 284 284 283 283 282 281 279 278 278
317 316 314 313 312 311 309 307 307 307 307 306 304 303 302 302 302 302 302 304 306 308 309 308 306 305 306 306 307 308 309 310 308 303 299 296 297 299 300 297 291 285 282 280 277 274 271 269 268 267 266 266 266 268 269 271 272 271 270 269 267 264 263 261 261 261 261 263 265 268 270 273 275 277 279 280 281 281 281 281 280 279 278 277 276 275
314 314 313 312 312 312 311 310 309 309 308 307 306 305 305 305 304 305 306 307 310 312 312 310 309 309 311 312 313 314 314 315 313 308 303 300 299 300 303 301 296 291 286 284 281 279 277 273 269 265 263 263 264 265 267 268 268 268 267 265 263 261 260 259 259 260 261 263 265 267 269 272 274 276 277 278 278 278 278 278 278 277 276 275 274 273
310 311 311 311 310 309 308 307 306 305 303 301 301 302 302 301 301 301 303 306 308 309 308 306 306 307 310 311 312 313 314 317 317 312 306 302 301 302 306 305 300 295 292 289 287 285 281 277 270 265 261 260 262 263 264 264 264 264 262 261 259 258 258 258 259 260 261 263 265 267 269 271 272 274 274 275 275 276 276 276 275 275 274 273 272 271
304 305 305 306 305 305 304 303 302 300 297 296 296 296 297 298 298 299 301 305 306 306 303 302 302 304 306 307 308 310 312 315 317 314 306 301 301 304 309 308 304 300 297 294 292 289 286 281 274 267 262 260 260 260 260 260 260 260 259 259 259 258 258 259 259 260 261 262 264 265 267 269 270 271 272 272 273 273 273 273 273 273 272 272 271 270
296 297 299 300 300 301 301 300 300 298 297 296 295 294 294 296 297 299 302 305 305 302 299 299 300 301 302 303 304 306 309 315 317 314 306 301 302 306 309 309 307 304 301 298 295 291 288 284 278 271 265 261 259 258 257 257 256 256 256 256 256 256 256 257 257 258 259 261 262 264 266 267 268 269 270 270 271 271 271 272 272 272 271 271 270 270
292 294 295 296 296 297 297 296 296 295 295 295 294 294 295 296 297 299 301 302 301 298 297 298 298 299 300 300 301 303 307 315 317 312 307 304 304 305 307 307 307 306 305 302 297 291 290 287 281 274 267 263 259 257 255 253 251 250 250 250 250 250 251 252 254 255 257 260 261 263 264 266 267 267 268 269 269 270 270 270 271 271 270 270 270 271
291 292 293 293 293 293 292 292 291 291 291 292 292 293 295 296 297 297 299 299 298 297 296 297 297 297 297 298 298 300 306 314 315 310 307 303 302 302 304 305 306 307 307 307 303 299 296 290 282 274 267 261 257 253 249 247 244 243 243 244 245 247 249 251 253 256 258 259 261 263 264 265 266 267 268 268 269 270 270 270 270 270 270 270 271 271
288 289 289 289 288 287 286 286 286 287 288 289 290 292 294 295 296 297 297 297 296 296 296 296 295 294 293 293 293 295 302 308 308 305 305 301 300 301 303 304 306 307 308 310 309 307 304 296 283 269 263 257 252 247 244 243 243 243 243 243 244 247 250 253 255 257 258 260 261 263 264 266 267 268 269 270 270 270 271 270 270 270 270 271 272 273
289 289 288 287 286 285 284 284 285 286 287 289 290 292 293 295 296 296 296 296 296 295 295 294 293 292 290 290 289 291 297 301 304 305 304 301 300 301 303 304 305 307 308 308 308 307 304 299 290 275 264 257 252 247 244 245 247 248 249 248 249 251 254 256 257 258 259 261 262 264 266 268 269 270 271 271 271 271 271 271 271 271 271 272 273 274
294 293 292 291 289 288 288 288 288 288 289 290 291 292 293 294 295 296 296 296 295 295 294 293 292 290 289 289 290 293 297 301 304 306 306 303 301 301 303 304 304 305 306 306 304 302 300 298 294 287 277 267 260 254 248 246 247 249 251 252 253 254 255 257 258 259 260 262 264 266 268 269 271 272 273 273 273 273 273 272 272 272 273 274 275 276
297 296 295 294 292 291 291 291 291 291 291 292 292 292 293 293 294 294 295 295 295 295 293 292 290 289 289 289 291 293 296 300 302 303 303 300 299 300 301 302 302 303 304 304 304 302 300 298 297 295 289 281 272 266 261 255 251 250 251 253 254 254 254 256 257 258 260 262 264 267 269 271 273 274 275 276 276 276 275 275 274 273 274 274 275 275
297 297 296 295 293 292 292 291 292 292 291 291 291 291 291 291 292 292 293 294 295 296 295 294 292 290 289 289 290 292 294 297 297 296 297 296 297 298 299 299 300 302 302 302 302 302 300 299 298 297 294 288 282 277 275 270 264 259 257 256 256 256 255 256 258 259 262 265 268 272 274 276 278 279 279 278 278 277 276 275 274 273 273 272 272 272
298 298 297 297 295 294 293 292 291 291 291 291 290 289 289 289 290 291 292 293 294 295 296 295 294 292 290 290 291 292 295 296 295 294 294 295 295 296 296 297 299 300 300 300 300 300 299 298 297 296 295 293 289 284 280 278 275 273 269 266 262 261 261 262 264 267 270 274 277 280 282 282 283 282 281 280 279 278 276 275 274 272 271 269 269 269
301 301 300 300 298 297 295 293 291 291 290 289 289 287 287 287 288 290 291 291 292 293 294 293 292 291 290 290 292 294 297 299 299 297 297 296 296 296 296 297 298 298 298 298 298 298 297 297 296 295 295 293 291 289 287 285 283 281 279 275 271 267 266 268 272 276 280 284 286 288 288 288 287 286 285 283 281 279 277 276 273 271 270 268 268 268
304 304 303 303 300 298 296 294 292 290 288 287 286 286 286 287 288 289 290 290 290 290 290 289 289 289 290 291 293 295 298 300 300 300 299 298 297 297 298 297 297 297 297 296 295 295 295 295 295 294 294 292 290 290 291 291 290 289 286 282 277 275 275 277 281 285 289 292 294 294 294 294 293 291 288 286 284 281 279 277 274 272 271 270 269 269
306 306 306 304 302 300 298 296 293 291 288 286 284 284 285 286 287 288 288 288 287 286 286 286 286 286 287 289 292 295 297 299 300 300 299 299 298 298 298 298 297 296 295 294 293 292 292 291 291 292 292 292 291 291 292 292 293 292 289 286 282 282 284 287 292 296 299 301 301 301 301 299 298 295 292 289 287 285 282 280 277 275 273 273 272 272
307 307 306 304 303 301 299 297 295 292 289 287 285 285 285 285 286 286 286 285 284 284 283 283 283 284 285 288 290 293 295 296 297 298 298 298 298 298 297 296 296 295 294 293 292 291 290 290 289 290 290 291 293 293 293 293 294 294 293 291 290 292 294 297 301 304 306 307 307 307 306 304 302 299 296 293 290 288 286 285 283 280 278 277 276 276
308 307 306 304 303 301 299 297 295 292 290 289 288 287 286 285 284 284 283 283 282 281 281 281 282 283 285 288 290 292 294 295 296 297 297 297 297 297 296 294 293 292 291 291 290 289 289 289 289 290 291 292 292 292 291 291 292 293 294 294 295 297 299 302 306 308 310 310 311 310 309 308 305 301 298 295 293 291 290 288 287 285 283 281 281 280
307 307 305 304 302 300 298 295 293 292 291 291 291 289 287 285 283 282 281 280 280 279 279 281 282 284 286 288 290 292 293 294 295 295 295 295 294 293 293 292 291 290 290 289 289 289 289 289 290 290 291 292 293 292 290 289 290 292 294 296 298 298 298 301 305 309 311 312 312 312 312 309 306 302 298 296 294 293 291 290 288 287 286 284 283 282
306 306 304 303 301 299 297 294 292 291 290 290 290 289 287 285 283 281 279 278 278 278 279 280 282 283 285 286 288 289 291 292 293 293 293 293 292 290 289 288 287 288 289 290 290 290 290 290 290 290 291 292 292 291 289 289 290 293 296 299 302 302 302 304 306 308 309 310 312 313 312 310 306 303 300 299 297 295 293 291 290 288 286 286 284 283
306 305 304 302 300 298 296 294 292 289 288 287 287 286 285 283 281 280 279 279 279 279 280 281 282 283 285 287 289 291 293 294 295 296 296 295 293 291 289 288 287 288 289 292 292 291 291 291 291 292 293 292 290 289 288 290 293 296 299 301 303 303 303 304 306 307 308 309 312 313 313 310 307 305 303 302 300 299 297 295 292 290 288 286 285 284
306 305 304 302 301 299 297 295 292 289 287 285 283 283 282 281 280 278 278 278 279 279 280 281 284 286 289 291 294 296 298 300 301 301 301 299 297 295 294 293 294 295 296 295 294 294 293 293 293 294 294 292 291 290 292 295 298 300 301 303 302 301 299 300 303 306 308 309 311 313 313 311 309 307 305 304 304 303 303 301 300 298 296 293 291 290
306 305 305 303 302 300 299 296 293 291 288 286 284 282 280 279 278 278 278 278 280 281 282 285 288 292 295 298 300 302 303 304 305 306 307 305 302 301 300 301 303 304 304 301 299 297 295 293 293 294 295 294 293 294 296 299 302 303 303 303 302 300 297 298 302 307 310 310 311 312 313 311 310 309 309 308 308 307 306 306 306 306 304 302 300 298
304 304 304 303 301 300 298 296 294 292 290 288 285 282 280 279 278 278 278 280 282 284 287 290 293 296 299 302 304 306 307 308 309 311 313 312 309 307 308 308 308 307 306 303 301 300 298 296 295 295 294 293 294 296 299 301 302 303 304 303 301 299 297 299 303 308 309 310 311 312 313 313 312 312 312 311 309 308 307 308 308 308 308 307 306 305
301 301 301 300 299 298 296 295 293 292 290 288 285 282 280 279 279 279 281 283 286 289 292 295 298 300 301 304 306 309 311 312 314 316 318 317 316 313 311 308 305 303 301 301 300 299 299 298 296 295 293 293 294 297 300 302 303 302 302 301 300 298 298 300 304 308 309 311 312 313 314 315 315 314 313 312 310 308 307 308 308 308 309 309 309 308
298 299 298 298 297 295 294 293 292 290 288 287 285 284 282 281 281 282 283 286 290 293 296 298 300 301 303 305 308 311 313 315 316 318 319 319 318 315 311 305 300 297 296 295 296 296 297 296 294 293 293 294 295 297 301 302 303 302 301 299 299 300 301 303 305 308 310 311 312 313 314 314 314 314 313 312 310 308 307 307 307 307 308 308 309 308
296 296 296 295 295 294 293 292 291 289 288 287 285 284 283 283 283 284 286 289 292 295 297 298 299 301 304 307 311 312 313 313 315 317 320 320 319 317 315 312 309 306 303 301 301 300 300 299 298 296 296 297 298 300 302 303 304 303 300 299 300 302 303 304 306 308 310 311 311 312 312 312 313 313 312 310 309 308 307 306 306 306 307 307 307 306
295 294 294 294 293 292 292 291 290 289 289 288 286 285 284 284 285 286 288 290 292 294 295 295 297 300 305 309 311 313 313 315 317 320 323 323 323 322 322 320 319 318 316 314 313 312 312 310 307 304 302 302 303 305 304 304 304 303 301 301 302 303 304 304 306 308 309 310 310 311 311 312 312 312 311 309 306 305 305 305 305 306 305 305 305 305